Flag for Germany Weather past 2 weeks in Regensburg, Bavaria, Germany

Now
60 °F

Overcast.


Feels Like: 60 °F
Forecast: 45 / 55 °F
Wind: 2 mph from West

Location: Regensburg

Current Time: Sep 21, 2014 at 9:19:32 PM

Latest Report: Sep 21, 2014 at 8:00 PM


Visibility: 22 mi

Pressure: 29.90 "Hg

Humidity: 92%

Dew point: 57 °F

Location of RegensburgLocation

Historic Weather in Regensburg — Graph

°F

Regensburg temperature yesterday

Maximum temperature yesterday: 67 °F (at 3:00 PM)
Minimum temperature yesterday: 58 °F (at 3:00 AM)
Average temperature yesterday: 61 °F

Past Weeks' High & Low Weather Summary

 TemperatureHumidityPressure
High79 °F (Sep 7, 3:00 PM)100% (Sep 21, 5:00 AM)30.11 "Hg (Sep 21, 5:00 AM)
Low51 °F (Sep 10, 7:00 AM)42% (Sep 10, 4:00 PM)29.87 "Hg (Sep 17, 6:00 PM)
Average61 °F84%29.98 "Hg
* Reported Sep 6 8:00 PM — Sep 21 8:00 PM, Regensburg, Weather by CustomWeather, © 2014

Note: Actual official high and low records may vary slightly from our data, if they occured in-between our weather recording intervals... More about our weather records

Advertising

Regensburg weather history for previous 24 hours

 ConditionsComfort  
Time TempWeatherWind HumidityBarometerVisibility
8:00 PM
Sep 21
60 °FOvercast.2 mph92%29.90 "Hg22 mi
7:00 PM60 °FOvercast.3 mph91%29.89 "Hg28 mi
6:00 PM62 °FOvercast.5 mph88%29.88 "Hg37 mi
5:00 PM64 °FOvercast.3 mph86%29.88 "Hg43 mi
4:00 PM64 °FOvercast.3 mph90%29.88 "Hg34 mi
3:00 PM64 °FPartly sunny.1 mph83%29.89 "Hg19 mi
2:00 PM64 °FLight rain. Partly sunny.3 mph89%29.91 "Hg9 mi
1:00 PM62 °FLight rain. Overcast.2 mph94%29.95 "Hg3 mi
12:00 PM64 °FOvercast.2 mph83%29.95 "Hg19 mi
11:00 AM62 °FLow clouds.2 mph88%29.96 "Hg10 mi
10:00 AM59 °FOvercast.1 mph95%29.96 "Hg4 mi
9:00 AM58 °FLight rain. Partly sunny.1 mph99%29.97 "Hg2 mi
8:00 AM57 °FRain. Dense fog.1 mph98%29.98 "Hg1 mi
7:00 AM56 °FLow clouds.2 mph99%29.97 "Hg1 mi
6:00 AM57 °FLow clouds.2 mph99%29.97 "Hg0 mi
5:00 AM57 °FLow clouds.1 mph100%29.97 "Hg0 mi
4:00 AM57 °FLow clouds.1 mph99%29.98 "Hg0 mi
3:00 AM56 °FFog.No wind99%29.99 "Hg2 mi
2:00 AM56 °FClear.No wind99%30.00 "Hg3 mi
1:00 AM57 °FLow clouds.No wind99%30.00 "Hg0 mi
12:00 AM57 °FPassing clouds.No wind98%30.00 "Hg1 mi
11:00 PM
Sep 20
60 °FClear.1 mph95%29.98 "Hg16 mi
10:00 PM60 °FPassing clouds.1 mph97%29.98 "Hg11 mi
9:00 PM62 °FPassing clouds.1 mph96%29.98 "Hg12 mi
Weather by CustomWeather, © 2014

See weather overviewHow to use our weather pages